Content
SEND FEEDBACK

Daily
Averages
Monthly
Summary
United States of America

SAHUARITA, ARIZONA


Home > North America > United States > Arizona
Elevation: 2700 feet     Latitude: 31 59N     Longitude: 110 59W

WEATHER
 
SELECT A DAY
Number of Records: 106,908;   Date Range: 1/1/02 - 9/3/14
 
SHARE

PRINT THIS DATA

[ ← Previous Day ]
WEATHER ALMANAC - JANUARY 3, 2013
[ Next Day → ]
[ °C ]   °F
Weather ElementAverageHighLow
Temperature46.5 °F60.1 °F (2:53 pm)30 °F (4:53 am)
Dewpoint26.4 °F30.9 °F (9:53 pm)21 °F (9:53 am)
Humidity49.2 %85 % (4:53 am)27 % (12:53 pm)
Barometer30.05 in30.14 in (10:53 pm)29.97 in (1:53 am)
Wind Speed9.2 mph23 mph (11:53 am)
Wind Gust28.8 mph (11:53 am)
Weather ElementAverage
Visibility10 mi
Wind DirectionE (92.2 °)

Weather ElementTotal
Precipitation---
Heating Degree Days20 (Base 65)
Averaged from 23 records on January 3, 2013
WEATHER CONDITIONS BREAKOUT
WIND DIRECTION BREAKOUT
WEATHER BY HOUR - JANUARY 3, 2013
[ °C ]   °F
Local TimeTemperatureDewpointHumidityBarometerVisibilityWind DirectionWind SpeedGust SpeedPrecipitationEventsConditions
1:53 AM43.0 °F25.0 °F49 %29.97 in10.0 miCalmClear
2:53 AM36.0 °F28.0 °F73 %30.00 in10.0 miSouth (170°)3.5 mphClear
3:53 AM33.1 °F27.0 °F78 %29.99 in10.0 miWSW (240°)3.5 mphClear
4:53 AM30.0 °F26.1 °F85 %29.99 in10.0 miCalmClear
5:53 AM32.0 °F26.1 °F79 %30.00 in10.0 miCalmClear
6:53 AM35.1 °F27.0 °F72 %30.02 in10.0 miNNE (30°)4.6 mphClear
7:53 AM35.1 °F27.0 °F72 %30.04 in10.0 miCalmClear
8:53 AM46.0 °F21.9 °F39 %30.04 in10.0 miEast (100°)4.6 mphClear
9:53 AM50.0 °F21.0 °F32 %30.06 in10.0 miESE (110°)12.7 mphClear
10:53 AM54.0 °F23.0 °F30 %30.05 in10.0 miEast (90°)8.1 mphClear
11:53 AM55.9 °F23.0 °F28 %30.03 in10.0 miESE (120°)23.0 mph28.8 mphClear
12:53 PM57.9 °F24.1 °F27 %30.01 in10.0 miESE (120°)12.7 mphClear
1:53 PM59.0 °F25.0 °F27 %29.99 in10.0 miEast (100°)12.7 mphClear
2:53 PM60.1 °F26.1 °F27 %30.00 in10.0 miEast (100°)9.2 mphClear
3:53 PM57.9 °F26.1 °F30 %30.02 in10.0 miEast (100°)8.1 mphScattered Clouds
4:53 PM57.0 °F28.0 °F33 %30.04 in10.0 miEast (80°)9.2 mphClear
5:53 PM52.0 °F28.0 °F40 %30.07 in10.0 miESE (120°)9.2 mphClear
6:53 PM48.9 °F28.0 °F44 %30.09 in10.0 miESE (110°)11.5 mphClear
7:53 PM46.9 °F28.0 °F48 %30.11 in10.0 miESE (110°)15.0 mph26.5 mphOvercast
8:53 PM46.9 °F30.0 °F52 %30.12 in10.0 miEast (100°)15.0 mph24.2 mphOvercast
9:53 PM45.0 °F30.9 °F58 %30.12 in10.0 miESE (120°)19.6 mph28.8 mphPartly Cloudy
10:53 PM44.1 °F28.9 °F55 %30.14 in10.0 miEast (100°)13.8 mph20.7 mphClear
11:53 PM44.1 °F28.0 °F53 %30.14 in10.0 miEast (100°)15.0 mph21.9 mphMostly Cloudy
Hourly data recorded from KTUS, located miles away from Sahuarita, Arizona







STORIES FROM OUR PARTNERS